Location: Colebrook
(42.0017°N, 73.0973°W)
Time: 15:04:14
(UTC-05:00)

Vanguard 2 - Pass Details

Date: 31 October 2021
Orbit: 554 x 2936 km, 32.9° (Epoch: 04 December)

Event Time Altitude Azimuth Distance (km) Brightness Sun altitude
Exits shadow 05:48:52 19° 242° (WSW) 2,989 10.0 -18.2°
Maximum altitude 05:51:39 21° 218° (SW) 2,551 9.8 -17.6°
Drops below altitude 10° 05:56:41 10° 171° (S) 2,789 10.5 -16.7°
Sets 05:59:29 0° 155° (SSE) 3,448 11.3 -16.2°
